Overview Statistics Trail Chart Weather Telemetry Raw packets
 

This is the latest recevied weather packets stored in our database for station/object M0JUI-1. If no packets are shown the sender has not sent any weather packets the latest 10 day(s).

<< 96 97 98 99 100 101 102 >>
Time Temp. Humidity Pressure Rain* Wind** Luminosity Snow
1787923124 16.67° C 16% 1004.6 hPa 2.54 mm - 236 W/m² -
1787922825 16.67° C 16% 1004.5 hPa 3.05 mm - 190 W/m² -
1787922525 16.67° C 16% 1004.5 hPa 3.3 mm - 184 W/m² -
1787922229 16.67° C 15% 1004.5 hPa 5.33 mm - 196 W/m² -
1787921925 16.67° C 15% 1004.7 hPa 7.11 mm - 199 W/m² -
1787921625 16.67° C 15% 1004.4 hPa 7.37 mm - 195 W/m² -
1787921324 16.11° C 14% 1004.4 hPa 8.13 mm - 121 W/m² -
1787921024 16.11° C 13% 1004.3 hPa 7.87 mm - 89 W/m² -
1787920724 16.11° C 13% 1004.2 hPa 7.87 mm - 53 W/m² -
1787920424 16.11° C 12% 1004.5 hPa 7.87 mm - 29 W/m² -
1787920124 16.11° C 11% 1004.4 hPa 7.62 mm - 23 W/m² -
1787919824 16.11° C 10% 1004.4 hPa 7.37 mm - 19 W/m² -
1787919525 16.11° C 9% 1004.6 hPa 7.11 mm - 19 W/m² -
1787919225 16.11° C 7% 1004.1 hPa 6.6 mm - 19 W/m² -
1787918924 16.11° C 6% 1004.3 hPa 6.1 mm - 26 W/m² -
1787918625 16.11° C 4% 1004.1 hPa 3.81 mm - 24 W/m² -
1787918312 16.67° C 1% 1004.1 hPa 1.52 mm - 19 W/m² -
1787918012 17.22° C 1% 1004 hPa 0.76 mm - 19 W/m² -
1787917713 18.33° C 99% 1003.9 hPa 0 mm - 21 W/m² -
1787917412 20.56° C 99% 1003.9 hPa 0 mm - 47 W/m² -
1787917112 20.56° C 99% 1003.9 hPa 0 mm - 863 W/m² -
1787916813 20° C 99% 1003.8 hPa 0 mm - 676 W/m² -
1787916512 19.44° C 99% 1003.6 hPa 0 mm - 509 W/m² -
1787916213 18.89° C 99% 1003.7 hPa 0 mm - 457 W/m² -
1787915912 18.89° C 99% 1003.6 hPa 0 mm - 186 W/m² -

* Rain latest hour (hover to see other rain measurements)
** Current wind speed in m/s (hover to see current wind gust speed)